{"data":{"norad_id":64374,"epoch":"2026-05-25T00:48:30.751200Z","epoch_age_seconds":65920,"freshness":"FRESH","line1":"1 64374U 25127E   26145.03368925  .00169327  00000+0  12943-2 0  9993","line2":"2 64374  43.0003 343.9739 0002193 272.1425  87.9192 15.70877297 55517","mean_motion":15.70877297,"eccentricity":0.0002193,"inclination_deg":43.0003,"raan_deg":343.9739,"arg_perigee_deg":272.1425,"mean_anomaly_deg":87.9192,"bstar":0.0012943,"rev_number":5551,"period_min":91.668521962222,"perigee_km":354.91158043772,"apogee_km":357.86534330529,"semimajor_km":6734.5254618715,"source":"CELESTRAK","updated_at":"2026-05-25T13:38:20.409818Z"}}